FW2998 Weather Reports


time (UTC)temp
F
wind
direction
speed
knots
gust
knots
rain 1hr
in
rain 24hr
in
rain mn
in
humidity
%
barometer
mb
20260905215025 85 0 0.0 0.0 0.07 0.07 0.07 72 1013.3
20260905214547 86 0 0.0 0.0 0.01 0.01 0.01 69 1012.2
20260905214022 87 0 0.0 0.0 0.01 0.01 0.01 67 1011.3
20260905213524 88 0 0.0 0.0 0.01 0.01 0.01 66 1011.1
20260905213049 89 0 0.0 0.0 0.01 0.01 0.01 64 1011.3
20260905212519 90 0 0.0 0.0 0.01 0.01 0.01 64 1010.7
20260905212025 92 0 0.0 0.0 0.01 0.01 0.01 61 1010.6
20260905211543 93 0 0.0 0.0 0.00 0.00 0.00 57 1010.5
20260905211024 95 0 0.0 0.0 0.00 0.00 0.00 56 1010.2
20260905210523 96 0 0.0 0.0 0.00 0.00 0.00 64 1009.6
20260905210041 96 0 0.0 0.0 0.00 0.00 0.00 62 1009.7
20260905205522 97 0 0.0 0.0 0.00 0.00 0.00 62 1010.0
20260905205024 97 0 0.0 0.0 0.00 0.00 0.00 57 1010.0
20260905204541 98 0 0.0 0.0 0.00 0.00 0.00 57 1010.0
20260905204023 98 0 0.0 0.0 0.00 0.00 0.00 56 1010.0
20260905203523 99 0 0.0 0.0 0.00 0.00 0.00 56 1010.1
20260905203042 99 0 0.0 0.0 0.00 0.00 0.00 56 1010.0
20260905202523 99 0 0.0 0.0 0.00 0.00 0.00 55 1009.9
20260905202023 99 0 0.0 0.0 0.00 0.00 0.00 54 1009.9
20260905201546 99 0 0.0 0.0 0.00 0.00 0.00 55 1010.1
20260905201033 98 0 0.0 0.0 0.00 0.00 0.00 55 1010.0
20260905200523 99 0 0.0 0.0 0.00 0.00 0.00 54 1010.0
20260905200051 99 0 0.0 0.0 0.00 0.00 0.00 54 1010.0
20260905195531 99 0 0.0 0.0 0.00 0.00 0.00 56 1010.1
20260905195027 99 0 0.0 0.0 0.00 0.00 0.00 56 1010.1
20260905194545 99 0 0.0 0.0 0.00 0.00 0.00 54 1010.1
20260905194019 98 0 0.0 0.0 0.00 0.00 0.00 54 1010.1
20260905193524 98 0 0.0 0.0 0.00 0.00 0.00 55 1010.2
20260905193042 98 0 0.0 0.0 0.00 0.00 0.00 55 1010.2
20260905192521 98 0 0.0 0.0 0.00 0.00 0.00 56 1010.2
20260905192025 98 0 0.0 0.0 0.00 0.00 0.00 55 1010.3
20260905191546 98 0 0.0 0.0 0.00 0.00 0.00 57 1010.4
20260905191025 98 0 0.0 0.0 0.00 0.00 0.00 56 1010.5
20260905190523 97 0 0.0 0.0 0.00 0.00 0.00 54 1010.6
20260905190050 97 0 0.0 0.0 0.00 0.00 0.00 53 1010.7
20260905185524 97 0 0.0 0.0 0.00 0.00 0.00 53 1010.8
20260905185023 96 0 0.0 0.0 0.00 0.00 0.00 57 1010.9
20260905184557 97 0 0.0 0.0 0.00 0.00 0.00 53 1011.0
20260905184019 97 0 0.0 0.0 0.00 0.00 0.00 54 1011.1
20260905183519 97 0 0.0 0.0 0.00 0.00 0.00 53 1011.4
20260905183047 98 0 0.0 0.0 0.00 0.00 0.00 56 1011.6
20260905182523 98 0 0.0 0.0 0.00 0.00 0.00 56 1011.6
20260905182023 97 0 0.0 0.0 0.00 0.00 0.00 60 1011.7
20260905181551 96 0 0.0 0.0 0.00 0.00 0.00 56 1011.9
20260905181023 96 0 0.0 0.0 0.00 0.00 0.00 58 1011.9
20260905180524 96 0 0.0 0.0 0.00 0.00 0.00 56 1012.0
20260905180043 96 0 0.0 0.0 0.00 0.00 0.00 59 1012.0
20260905175531 96 0 0.0 0.0 0.00 0.00 0.00 56 1012.1
20260905175024 96 0 0.0 0.0 0.00 0.00 0.00 58 1012.2
20260905174546 96 0 0.0 0.0 0.00 0.00 0.00 57 1012.1
20260905174024 97 0 0.0 0.0 0.00 0.00 0.00 59 1012.3
20260905173524 96 0 0.0 0.0 0.00 0.00 0.00 59 1012.3
20260905173044 96 0 0.0 0.0 0.00 0.00 0.00 60 1012.5
20260905172524 96 0 0.0 0.0 0.00 0.00 0.00 60 1012.4
20260905172025 95 0 0.0 0.0 0.00 0.00 0.00 60 1012.5
20260905171544 95 0 0.0 0.0 0.00 0.00 0.00 58 1012.6
20260905171024 95 0 0.0 0.0 0.00 0.00 0.00 59 1012.8
20260905170524 95 0 0.0 0.0 0.00 0.00 0.00 59 1012.9
20260905170043 95 0 0.0 0.0 0.00 0.00 0.00 62 1013.0
20260905165523 94 0 0.0 0.0 0.00 0.00 0.00 61 1013.0
20260905165025 94 0 0.0 0.0 0.00 0.00 0.00 62 1013.2
20260905164544 94 0 0.0 0.0 0.00 0.00 0.00 61 1013.2
20260905164019 93 0 0.0 0.0 0.00 0.00 0.00 63 1013.3
20260905163521 93 0 0.0 0.0 0.00 0.00 0.00 63 1013.2
20260905163044 93 0 0.0 0.0 0.00 0.00 0.00 63 1013.3
20260905162524 93 0 0.0 0.0 0.00 0.00 0.00 62 1013.4
20260905162024 93 0 0.0 0.0 0.00 0.00 0.00 62 1013.4
20260905161542 92 0 0.0 0.0 0.00 0.00 0.00 64 1013.5
20260905161024 92 0 0.0 0.0 0.00 0.00 0.00 63 1013.5
20260905160523 92 0 0.0 0.0 0.00 0.00 0.00 65 1013.6
20260905160045 92 0 0.0 0.0 0.00 0.00 0.00 64 1013.7
20260905155522 92 0 0.0 0.0 0.00 0.00 0.00 65 1013.7
20260905155022 93 0 0.0 0.0 0.00 0.00 0.00 65 1013.7
20260905154544 93 0 0.0 0.0 0.00 0.00 0.00 64 1013.8
20260905154025 93 0 0.0 0.0 0.00 0.00 0.00 65 1014.0
20260905153525 92 0 0.0 0.0 0.00 0.00 0.00 66 1014.0
20260905153054 92 0 0.0 0.0 0.00 0.00 0.00 67 1014.0
20260905152525 92 0 0.0 0.0 0.00 0.00 0.00 66 1014.1
20260905152024 92 0 0.0 0.0 0.00 0.00 0.00 67 1014.1
20260905151547 92 0 0.0 0.0 0.00 0.00 0.00 67 1014.1
20260905151019 91 0 0.0 0.0 0.00 0.00 0.00 69 1014.2
20260905150519 91 0 0.0 0.0 0.00 0.00 0.00 67 1014.3
20260905150046 91 0 0.0 0.0 0.00 0.00 0.00 68 1014.4
20260905145522 91 0 0.0 0.0 0.00 0.00 0.00 69 1014.4
20260905145022 91 0 0.0 0.0 0.00 0.00 0.00 69 1014.4
20260905144547 90 0 0.0 0.0 0.00 0.00 0.00 71 1014.4
20260905144022 90 0 0.0 0.0 0.00 0.00 0.00 72 1014.5
20260905143519 90 0 0.0 0.0 0.00 0.00 0.00 72 1014.7
20260905143043 89 0 0.0 0.0 0.00 0.00 0.00 72 1014.6
20260905142525 89 0 0.0 0.0 0.00 0.00 0.00 73 1014.6
20260905142024 88 0 0.0 0.0 0.00 0.00 0.00 73 1014.5
20260905141546 88 0 0.0 0.0 0.00 0.00 0.00 75 1014.7
20260905141023 88 0 0.0 0.0 0.00 0.00 0.00 75 1014.6
20260905140521 87 0 0.0 0.0 0.00 0.00 0.00 76 1014.6
20260905140046 87 0 0.0 0.0 0.00 0.00 0.00 78 1014.5
20260905135521 86 0 0.0 0.0 0.00 0.00 0.00 79 1014.6
20260905135023 85 0 0.0 0.0 0.00 0.00 0.00 79 1014.6
20260905134543 85 0 0.0 0.0 0.00 0.00 0.00 80 1014.7
20260905134024 84 0 0.0 0.0 0.00 0.00 0.00 82 1014.7
20260905133525 84 0 0.0 0.0 0.00 0.00 0.00 83 1014.7
20260905133042 83 0 0.0 0.0 0.00 0.00 0.00 85 1014.7
20260905132524 83 0 0.0 0.0 0.00 0.00 0.00 87 1014.7
20260905132024 82 0 0.0 0.0 0.00 0.00 0.00 88 1014.7
20260905131559 81 0 0.0 0.0 0.00 0.00 0.00 91 1014.7
20260905131023 80 0 0.0 0.0 0.00 0.00 0.00 92 1014.9
20260905130522 80 0 0.0 0.0 0.00 0.00 0.00 93 1014.9
20260905130049 79 0 0.0 0.0 0.00 0.00 0.00 93 1014.9
20260905125521 79 0 0.0 0.0 0.00 0.00 0.00 94 1014.9
20260905125028 78 0 0.0 0.0 0.00 0.00 0.00 95 1015.0
20260905124544 78 0 0.0 0.0 0.00 0.00 0.00 95 1015.0
20260905124025 77 0 0.0 0.0 0.00 0.00 0.00 95 1015.0
20260905123524 77 0 0.0 0.0 0.00 0.00 0.00 95 1014.9
20260905123043 77 0 0.0 0.0 0.00 0.00 0.00 95 1014.9
20260905122525 76 0 0.0 0.0 0.00 0.00 0.00 95 1014.9
20260905122023 76 0 0.0 0.0 0.00 0.00 0.00 95 1014.7
20260905121542 76 0 0.0 0.0 0.00 0.00 0.00 95 1014.7
20260905121020 76 0 0.0 0.0 0.00 0.00 0.00 95 1014.7
20260905120527 76 0 0.0 0.0 0.00 0.00 0.00 95 1014.6
20260905120044 76 0 0.0 0.0 0.00 0.00 0.00 95 1014.6
20260905115528 76 0 0.0 0.0 0.00 0.00 0.00 94 1014.6
20260905115025 76 0 0.0 0.0 0.00 0.00 0.00 94 1014.5
20260905114544 76 0 0.0 0.0 0.00 0.00 0.00 94 1014.6
20260905114021 75 0 0.0 0.0 0.00 0.00 0.00 94 1014.5
20260905113555 75 0 0.0 0.0 0.00 0.00 0.00 94 1014.5
20260905113043 75 0 0.0 0.0 0.00 0.00 0.00 94 1014.4
20260905112525 75 0 0.0 0.0 0.00 0.00 0.00 94 1014.4
20260905112024 75 0 0.0 0.0 0.00 0.00 0.00 94 1014.3
20260905111602 75 0 0.0 0.0 0.00 0.00 0.00 93 1014.3
20260905111024 75 0 0.0 0.0 0.00 0.00 0.00 93 1014.3
20260905110524 75 0 0.0 0.0 0.00 0.00 0.00 93 1014.2
20260905110044 76 0 0.0 0.0 0.00 0.00 0.00 93 1014.1
20260905105524 76 0 0.0 0.0 0.00 0.00 0.00 93 1014.1
20260905105019 76 0 0.0 0.0 0.00 0.00 0.00 93 1014.0
20260905104545 76 0 0.0 0.0 0.00 0.00 0.00 93 1014.0
20260905104021 76 0 0.0 0.0 0.00 0.00 0.00 93 1014.0
20260905103523 76 0 0.0 0.0 0.00 0.00 0.00 93 1014.0
20260905103042 76 0 0.0 0.0 0.00 0.00 0.00 93 1013.9
20260905102525 76 0 0.0 0.0 0.00 0.00 0.00 93 1013.9
20260905102024 76 0 0.0 0.0 0.00 0.00 0.00 93 1013.9
20260905101547 76 0 0.0 0.0 0.00 0.00 0.00 93 1013.8
20260905101023 76 0 0.0 0.0 0.00 0.00 0.00 93 1013.8
20260905100529 76 0 0.0 0.0 0.00 0.00 0.00 93 1013.9
20260905100046 76 0 0.0 0.0 0.00 0.00 0.00 93 1013.9
20260905095524 76 0 0.0 0.0 0.00 0.00 0.00 93 1013.8
20260905095024 76 0 0.0 0.0 0.00 0.00 0.00 93 1013.9
20260905094542 76 0 0.0 0.0 0.00 0.00 0.00 93 1013.9
20260905094021 76 0 0.0 0.0 0.00 0.00 0.00 93 1014.0
20260905093521 76 0 0.0 0.0 0.00 0.00 0.00 93 1013.9
20260905093043 76 0 0.0 0.0 0.00 0.00 0.00 93 1013.8
20260905092522 76 0 0.0 0.0 0.00 0.00 0.00 93 1013.8
20260905092028 76 0 0.0 0.0 0.00 0.00 0.00 92 1013.7
20260905091543 76 0 0.0 0.0 0.00 0.00 0.00 92 1013.7
20260905091024 76 0 0.0 0.0 0.00 0.00 0.00 92 1013.9
20260905090526 77 0 0.0 0.0 0.00 0.00 0.00 92 1013.9
20260905090046 77 0 0.0 0.0 0.00 0.00 0.00 92 1014.0
20260905085522 77 0 0.0 0.0 0.00 0.00 0.00 92 1014.0
20260905085022 77 0 0.0 0.0 0.00 0.00 0.00 92 1014.2
20260905084542 77 0 0.0 0.0 0.00 0.00 0.00 92 1014.1
20260905084025 77 0 0.0 0.0 0.00 0.00 0.00 92 1014.2
20260905083527 77 0 0.0 0.0 0.00 0.00 0.00 92 1014.1
20260905083042 77 0 0.0 0.0 0.00 0.00 0.00 92 1014.1
20260905082524 77 0 0.0 0.0 0.00 0.00 0.00 92 1014.1
20260905082025 77 0 0.0 0.0 0.00 0.00 0.00 91 1014.1
20260905081548 77 0 0.0 0.0 0.00 0.00 0.00 91 1014.1
20260905081025 77 0 0.0 0.0 0.00 0.00 0.00 91 1014.1
20260905080523 77 0 0.0 0.0 0.00 0.00 0.00 91 1014.1
20260905080042 77 0 0.0 0.0 0.00 0.00 0.00 91 1014.0
20260905075525 77 0 0.0 0.0 0.00 0.00 0.00 91 1014.0
20260905075023 77 0 0.0 0.0 0.00 0.00 0.00 91 1014.0
20260905074551 77 0 0.0 0.0 0.00 0.00 0.00 91 1014.1
20260905074025 77 0 0.0 0.0 0.00 0.00 0.00 91 1014.1
20260905073526 78 0 0.0 0.0 0.00 0.00 0.00 91 1014.0
20260905073058 78 0 0.0 0.0 0.00 0.00 0.00 91 1014.0
20260905072524 78 0 0.0 0.0 0.00 0.00 0.00 90 1014.1
20260905072022 78 0 0.0 0.0 0.00 0.00 0.00 90 1014.0
20260905071546 78 0 0.0 0.0 0.00 0.00 0.00 90 1013.9
20260905071023 78 0 0.0 0.0 0.00 0.00 0.00 90 1014.1
20260905070523 78 0 0.0 0.0 0.00 0.00 0.00 90 1014.1
20260905070044 78 0 0.0 0.0 0.00 0.00 0.00 89 1014.0
20260905065524 78 0 0.0 0.0 0.00 0.00 0.00 89 1014.0
20260905065027 78 0 0.0 0.0 0.00 0.00 0.00 89 1014.2
20260905064542 78 0 0.0 0.0 0.00 0.00 0.00 89 1014.1
20260905064024 78 0 0.0 0.0 0.00 0.00 0.00 89 1014.2
20260905063523 78 0 0.0 0.0 0.00 0.00 0.00 89 1014.2
20260905063044 78 0 0.0 0.0 0.00 0.00 0.00 89 1014.1
20260905062525 78 0 0.0 0.0 0.00 0.00 0.00 88 1014.2
20260905062023 78 0 0.0 0.0 0.00 0.00 0.00 88 1014.2
20260905061546 79 0 0.0 0.0 0.00 0.00 0.00 88 1014.2
20260905061022 79 0 0.0 0.0 0.00 0.00 0.00 88 1014.4
20260905060521 79 0 0.0 0.0 0.00 0.00 0.00 87 1014.4
20260905060043 79 0 0.0 0.0 0.00 0.00 0.00 87 1014.5
20260905055522 79 0 0.0 0.0 0.00 0.00 0.00 87 1014.6
20260905055023 79 0 0.0 0.0 0.00 0.00 0.00 87 1014.6
20260905054546 79 0 0.0 0.0 0.00 0.00 0.00 87 1014.6
20260905054023 79 0 0.0 0.0 0.00 0.00 0.00 87 1014.9
20260905053524 79 0 0.0 0.0 0.00 0.00 0.00 87 1014.9
20260905053110 79 0 0.0 0.0 0.00 0.00 0.00 87 1014.9
20260905052523 79 0 0.0 0.0 0.00 0.00 0.00 87 1014.9
20260905052024 80 0 0.0 0.0 0.00 0.00 0.00 87 1014.9
20260905051544 80 0 0.0 0.0 0.00 0.00 0.00 87 1015.0
20260905051023 80 0 0.0 0.0 0.00 0.00 0.00 87 1015.1
20260905050521 80 0 0.0 0.0 0.00 0.00 0.00 86 1015.1
20260905050042 80 0 0.0 0.0 0.00 0.00 0.00 86 1015.2
20260905045524 80 0 0.0 0.0 0.00 0.00 0.00 86 1015.2
20260905045024 80 0 0.0 0.0 0.00 0.00 0.00 86 1015.2
20260905044545 80 0 0.0 0.0 0.00 0.00 0.00 86 1015.3
20260905044023 80 0 0.0 0.0 0.00 0.00 0.00 85 1015.3
20260905043522 80 0 0.0 0.0 0.00 0.00 0.00 86 1015.3
20260905043044 80 0 0.0 0.0 0.00 0.00 0.00 85 1015.2
20260905042525 81 0 0.0 0.0 0.00 0.00 0.00 85 1015.4
20260905042024 81 0 0.0 0.0 0.00 0.00 0.00 85 1015.5
20260905041546 81 0 0.0 0.0 0.00 0.00 0.00 85 1015.5
20260905041019 81 0 0.0 0.0 0.00 0.00 0.00 85 1015.3
20260905040521 81 0 0.0 0.0 0.00 0.00 0.00 85 1015.5
20260905040044 81 0 0.0 0.0 0.00 0.00 0.00 85 1015.5
20260905035523 81 0 0.0 0.0 0.00 0.00 0.00 84 1015.4
20260905035024 81 0 0.0 0.0 0.00 0.00 0.00 85 1015.5
20260905034547 82 0 0.0 0.0 0.00 0.00 0.00 84 1015.4
20260905034023 82 0 0.0 0.0 0.00 0.00 0.00 84 1015.4
20260905033527 82 0 0.0 0.0 0.00 0.00 0.00 84 1015.5
20260905033055 82 0 0.0 0.0 0.00 0.00 0.00 84 1015.5
20260905032527 82 0 0.0 0.0 0.00 0.00 0.00 83 1015.5
20260905032025 82 0 0.0 0.0 0.00 0.00 0.00 83 1015.6
20260905031545 82 0 0.0 0.0 0.00 0.00 0.00 83 1015.6
20260905031020 82 0 0.0 0.0 0.00 0.00 0.00 83 1015.6
20260905030524 82 0 0.0 0.0 0.00 0.00 0.00 83 1015.6
20260905030047 82 0 0.0 0.0 0.00 0.00 0.00 82 1015.7
20260905025524 82 0 0.0 0.0 0.00 0.00 0.00 82 1015.7
20260905025023 83 0 0.0 0.0 0.00 0.00 0.00 82 1015.7
20260905024543 83 0 0.0 0.0 0.00 0.00 0.00 82 1015.7
20260905024021 83 0 0.0 0.0 0.00 0.00 0.00 81 1015.7
20260905023521 83 0 0.0 0.0 0.00 0.00 0.00 81 1015.7
20260905023045 83 0 0.0 0.0 0.00 0.00 0.00 80 1015.6
20260905022524 83 0 0.0 0.0 0.00 0.00 0.00 80 1015.6
20260905022025 83 0 0.0 0.0 0.00 0.00 0.00 80 1015.5
20260905021543 83 0 0.0 0.0 0.00 0.00 0.00 80 1015.5
20260905021024 83 0 0.0 0.0 0.00 0.00 0.00 79 1015.5
20260905020525 84 0 0.0 0.0 0.00 0.00 0.00 79 1015.5
20260905020043 84 0 0.0 0.0 0.00 0.00 0.00 79 1015.6
20260905015521 84 0 0.0 0.0 0.00 0.00 0.00 78 1015.5
20260905015025 84 0 0.0 0.0 0.00 0.00 0.00 78 1015.5
20260905014544 84 0 0.0 0.0 0.00 0.00 0.00 78 1015.5
20260905014021 84 0 0.0 0.0 0.00 0.00 0.00 77 1015.5
20260905013522 84 0 0.0 0.0 0.00 0.00 0.00 76 1015.4
20260905013048 84 0 0.0 0.0 0.00 0.00 0.00 76 1015.4
20260905012524 84 0 0.0 0.0 0.00 0.00 0.00 75 1015.4
20260905012023 84 0 0.0 0.0 0.00 0.00 0.00 75 1015.5
20260905011544 84 0 0.0 0.0 0.00 0.00 0.00 73 1015.3
20260905011023 84 0 0.0 0.0 0.00 0.00 0.00 72 1015.3
20260905010524 85 0 0.0 0.0 0.00 0.00 0.00 71 1015.2
20260905010043 85 0 0.0 0.0 0.00 0.00 0.00 71 1015.1
20260905005525 85 0 0.0 0.0 0.00 0.00 0.00 71 1015.1
20260905005024 85 0 0.0 0.0 0.00 0.00 0.00 70 1015.1
20260905004548 86 0 0.0 0.0 0.00 0.00 0.00 70 1014.9
20260905004023 86 0 0.0 0.0 0.00 0.00 0.00 69 1014.7
20260905003524 86 0 0.0 0.0 0.00 0.00 0.00 69 1014.7
20260905003048 86 0 0.0 0.0 0.00 0.00 0.00 68 1014.5
20260905002520 87 0 0.0 0.0 0.00 0.00 0.00 68 1014.6
20260905002024 87 0 0.0 0.0 0.00 0.00 0.00 68 1014.6
20260905001545 88 0 0.0 0.0 0.00 0.00 0.00 67 1014.6
20260905001023 88 0 0.0 0.0 0.00 0.00 0.00 67 1014.6
20260905000523 88 0 0.0 0.0 0.00 0.00 0.00 66 1014.6
20260905000043 89 0 0.0 0.0 0.00 0.00 0.00 66 1014.5
20260904235523 89 0 0.0 0.0 0.00 0.00 0.00 65 1014.4
20260904235024 89 0 0.0 0.0 0.00 0.00 0.00 64 1014.4
20260904234541 90 0 0.0 0.0 0.00 0.00 0.00 63 1014.4
20260904234023 90 0 0.0 0.0 0.00 0.00 0.00 63 1014.3
20260904233520 91 0 0.0 0.0 0.00 0.00 0.00 62 1014.2
20260904233052 91 0 0.0 0.0 0.00 0.00 0.00 62 1014.3
20260904232526 91 0 0.0 0.0 0.00 0.00 0.00 62 1014.3
20260904232022 92 0 0.0 0.0 0.00 0.00 0.00 61 1014.3
20260904231546 92 0 0.0 0.0 0.00 0.00 0.00 61 1014.4
20260904231023 93 0 0.0 0.0 0.00 0.00 0.00 59 1014.3
20260904230522 93 0 0.0 0.0 0.00 0.00 0.00 59 1014.3
20260904230043 93 0 0.0 0.0 0.00 0.00 0.00 58 1014.4
20260904225523 94 0 0.0 0.0 0.00 0.00 0.00 58 1014.4
20260904225025 94 0 0.0 0.0 0.00 0.00 0.00 57 1014.3
20260904224559 94 0 0.0 0.0 0.00 0.00 0.00 57 1014.2
20260904224024 95 0 0.0 0.0 0.00 0.00 0.00 57 1014.3
20260904223525 95 0 0.0 0.0 0.00 0.00 0.00 57 1014.2
20260904223049 95 0 0.0 0.0 0.00 0.00 0.00 56 1014.2
20260904222525 96 0 0.0 0.0 0.00 0.00 0.00 55 1014.2
20260904222024 96 0 0.0 0.0 0.00 0.00 0.00 54 1014.2
20260904221548 96 0 0.0 0.0 0.00 0.00 0.00 55 1014.1
20260904221021 96 0 0.0 0.0 0.00 0.00 0.00 54 1014.1
20260904220528 97 0 0.0 0.0 0.00 0.00 0.00 53 1014.1
20260904220045 97 0 0.0 0.0 0.00 0.00 0.00 53 1014.1
20260904215521 97 0 0.0 0.0 0.00 0.00 0.00 54 1014.2